Preview of NWS' New Version of Forecast
This preview is not operational and should not be used for support decisions.

Regional Weather Roundup (RWR)

Issued by National Weather Service (NWS)

                            
000
ASUS44 KJAN 201210
RWRMS 

MISSISSIPPI HOURLY WEATHER ROUNDUP
NATIONAL WEATHER SERVICE JACKSON MS
700 AM CDT SAT APR 20 2019

NOTE: "FAIR: INDICATES FEW OR NO CLOUDS BELOW 12,000 FEET WITH NO
SIGNIFICANT WEATHER AND/OR OBSTRUCTIONS TO VISIBILITY.

MSZ001>002-007>008-010>013-018>021-025>028-034>036-201300-
NORTHWEST MISSISSIPPI
  
CITY           SKY/WX    TMP DP  RH WIND       PRES   REMARKS
BATESVILLE     FAIR      46  34  61 W6        29.88R                  
CLARKSDALE     CLEAR     48  37  66 W10       29.91R                  
CLEVELAND      FAIR      47  38  70 W7        29.94R                  
GREENWOOD      FAIR      49  36  61 VRB5      29.92R                  
6HR MIN TEMP:  49; 6HR MAX TEMP:  52;                                

GREENVILLE     FAIR      47  38  71 W8        29.94R                  
6HR MIN TEMP:  47; 6HR MAX TEMP:  52;                                

OLIVE BRANCH   CLEAR     45  34  65 NW12      29.84R                  
OXFORD         FAIR      43  36  75 W6        29.87R                  
TUNICA           N/A     45  34  65 NW12      29.90R                  
WINONA         FAIR      45  37  76 CALM      29.90R                  
$$

MSZ003>006-009-014>017-022>024-029>033-037>039-201300-
NORTHEAST MISSISSIPPI
  
CITY           SKY/WX    TMP DP  RH WIND       PRES   REMARKS
ABERDEEN       FAIR      46  43  87 NW10      29.83R                  
COLUMBUS AFB   FAIR      46  38  74 W13       29.82R                  
6HR MIN TEMP:  46; 6HR MAX TEMP:  48; 6HR PCP: TRACE;                

CORINTH        FAIR      46  32  57 NW12G17   29.77R                  
GOLDN TRIANGLE FAIR      47  40  76 W8        29.85R                  
STARKVILLE     FAIR      45  41  87 W5        29.87R                  
TUPELO         FAIR      47  34  60 VRB6      29.81R                  
6HR MIN TEMP:  46; 6HR MAX TEMP:  48;                                

$$

MSZ040-058-201300-
CENTRAL MISSISSIPPI
  
CITY           SKY/WX    TMP DP  RH WIND       PRES   REMARKS
JACKSON INTL   FAIR      48  41  76 W8        29.94R                  
6HR MIN TEMP:  46; 6HR MAX TEMP:  50;                                

JACKSON HAWKNS FAIR      46  43  89 W6        29.95R                  
6HR MIN TEMP:  45; 6HR MAX TEMP:  50;                                

MADISON        FAIR      45  43  93 CALM      29.94R                  
MERIDIAN KEY   FAIR      48  42  80 W7        29.90R                  
6HR MIN TEMP:  47; 6HR MAX TEMP:  50;                                

MERIDIAN NAS   FAIR      50  42  74 W12       29.89R                  
6HR MIN TEMP:  47; 6HR MAX TEMP:  51;                                

RAYMOND        FAIR      45  45 100 CALM      29.96R                  
VICKSBURG VKS  SUNNY     46  45  93 CALM      29.99R                  
$$

MSZ059>079-201300-
SOUTH MISSISSIPPI
  
CITY           SKY/WX    TMP DP  RH WIND       PRES   REMARKS
HATTIESBURG    FAIR      49  45  86 W6        29.96R                  
6HR MIN TEMP:  49; 6HR MAX TEMP:  51;                                

LAUREL         SUNNY     47  44  87 W8        29.94R                  
MCCOMB         FAIR      47  42  83 W7        29.98R                  
6HR MIN TEMP:  47; 6HR MAX TEMP:  50;                                

NATCHEZ        FAIR      44  42  93 CALM      30.01R                  
6HR MIN TEMP:  44; 6HR MAX TEMP:  51;                                

PINE BELT      FAIR      46  44  93 W3        29.96R                  
6HR MIN TEMP:  45; 6HR MAX TEMP:  49; 6HR PCP: TRACE;                

$$

MSZ080>082-201300-
COASTAL MISSISSIPPI
  
CITY           SKY/WX    TMP DP  RH WIND       PRES   REMARKS
BAY ST LOUIS   CLEAR     48  46  93 NW7       29.97                   
BILOXI         FAIR      54  48  80 NW9       29.96R                  
6HR MIN TEMP:  51; 6HR MAX TEMP:  54;                                

PASCAGOULA     FAIR      49  46  90 CALM      29.95R                  
6HR MIN TEMP:  47; 6HR MAX TEMP:  53;                                

GULFPORT       FAIR      50  46  86 W7        29.96R                  
6HR MIN TEMP:  47; 6HR MAX TEMP:  52;                                

$$

LAZ007>009-015>016-023>026-201300-
NORTHEAST LOUISIANA
  
CITY           SKY/WX    TMP DP  RH WIND       PRES   REMARKS
BASTROP        FAIR      42  41  97 W3        30.00R                  
TALLULAH/VBURG FAIR      49  44  83 W3        29.98R                  
6HR MIN TEMP:  47; 6HR MAX TEMP:  51;                                

VIDALIA        FAIR      47  43  85 NW5       30.00R                  
$$